Weather in Peschanka

Russia / Penza Oblast     52°33′58″N   44°24′00″E
temp.,
°C
wind,
m/s
gust,
m/s
humid.,
%
clouds,
%
prec.,
mm/h
press.,
hPa
HPBL,
m
18 may, tue
tue1800:00+18ese4951100 0.0 1014116
03:00+17ese411485 0.0 1013151
06:00+17ese5145620 0.0 1012261
09:00+23ese713465 0.0 1012459
12:00+27ese811375 0.0 1012820
15:00+29ese713360 0.0 10102888
18:00+25ese511490 0.0 1010275
21:00+22ese718432 0.0 1010381
19 may, wed
wed1900:00+19sse510526 0.0 1011215
03:00+18e5125995 0.0 1010196
06:00+18e396796 0.0 1010269
09:00+22se61052100 0.0 1010575
12:00+26se8114485 0.0 10101046
15:00+29se713425 0.0 10092776
18:00+25se5105099 0.0 1008241
21:00+21se61552100 0.0 1009431
20 may, thu
thu2000:00+16w3579100 0.0 1010145
03:00+14ssw3593100 1.6 1011150
06:00+15s3485100 0.4 1011340
09:00+18s5767100 0.4 1012974
12:00+19s575791 0.1 10121558
15:00+19ssw5662100 0.1 10121173
18:00+18ssw4672100 0.4 1012331
21:00+15s3484100 0.8 101296
21 may, fri
fri2100:00+12sw35935 0.0 1013103
03:00+11sw379640 0.0 1013157
06:00+13sw358982 0.0 1014225
09:00+16sw567226 0.1 1014949
12:00+19wsw676098 0.3 10151529
15:00+19wsw676049 0.3 10161461
18:00+18w366785 0.0 10161047
21:00+14nw2282100 0.0 101826
22 may, sat
sat2200:00+13nne118618 0.0 101811
03:00+12e338679 0.0 101927
06:00+14ene2383100 0.0 1020114
09:00+18e4571100 0.1 1019456
12:00+23ese575688 0.0 10181269
15:00+25sse694721 0.0 10172131
18:00+23se51059100 0.0 1016288
21:00+20ese51466100 0.0 1016307